Regional Weather Roundup
Issued by NWS

Home | Current Version | Previous Version | Text Only | Print | Product List | Glossary On
Versions: 1 2 3 4 5 6 7 8 9 10 11 12 13 14 15 16 17 18 19 20 21 22 23 24 25 26 27 28 29 30 31 32 33 34 35 36 37 38 39 40 41 42 43 44 45 46 47 48 49 50
000
ASUS45 KBOI 261510
RWRID
WEATHER ROUNDUP FOR IDAHO
NATIONAL WEATHER SERVICE BOISE ID
900 AM MDT SUN APR 26 2015

NOTE: "FAIR" INDICATES FEW OR NO CLOUDS BELOW 12000 FEET
WITH NO SIGNIFICANT WEATHER AND/OR OBSTRUCTIONS TO VISIBILITY

IDZ012-014-261600-
SOUTHWEST IDAHO


CITY           SKY/WX    TMP DP  RH WIND       PRES   REMARKS
BOISE          SUNNY     41  27  57 NW14      30.07R
CALDWELL       SUNNY     43  25  49 NW16      30.11R
MOUNTAIN HOME  SUNNY     44  24  45 NW29G37   30.04R
$$

IDZ016-017-261600-
SOUTHCENTRAL IDAHO


CITY           SKY/WX    TMP DP  RH WIND       PRES   REMARKS
BURLEY         FLURRIES  39  25  57 W22G37    29.96R WCI  29
JEROME         SUNNY     38  25  59 SW28G35   29.98R WCI  26
TWIN FALLS     SUNNY     41  24  51 W25G39    30.00R
$$

IDZ019>023-261600-
SOUTHEAST IDAHO


CITY           SKY/WX    TMP DP  RH WIND       PRES   REMARKS
IDAHO FALLS    LGT SNOW  35  33  92 S18       29.90R FOG     WCI  24
POCATELLO      PTSUNNY   37  29  72 SW25      29.96R WCI  25
REXBURG        LGT RAIN  36  34  92 S10       29.89R WCI  28
$$

IDZ006-010-011-018-031-032-261600-
CENTRAL IDAHO MOUNTAINS


CITY           SKY/WX    TMP DP  RH WIND       PRES   REMARKS
MCCALL         SUNNY     37  23  56 N12G23    30.03R WCI  29
HAILEY         MOSUNNY   41  28  60 W3        29.92R
STANLEY          N/A     34  20  56 NW8       29.98R WCI  27
SALMON         CLOUDY    39  34  81 NE7       30.00R WCI  34
CHALLIS        CLOUDY    39  32  76 N5        29.97R
$$

IDZ002-004-006-007-026-261600-
NORTHERN IDAHO


CITY           SKY/WX    TMP DP  RH WIND       PRES   REMARKS
LEWISTON       SUNNY     43  35  73 CALM      30.16R
LOWELL           N/A     44  40  85 CALM      30.16R
COEUR D`ALENE  CLOUDY    39  36  87 N5        30.15R
MULLAN PASS    FOG       28  28 100 MISG      30.04R VSB 1/4
$$


USA.gov is the U.S. government's official web portal to all federal, state and local government web resources and services.